Weather History for Novato, CA

Change the Weather History Date:

Sunday, June 23, 2013

  Actual Average (KAPC) Record (KAPC)
Temperature  
Mean Temperature 63 °F 65 °F  
Max Temperature 69 °F 79 °F 86 °F (2007)
Min Temperature 57 °F 51 °F 44 °F (2003)
Degree Days  
Heating Degree Days 2    
Month to date heating degree days  
Since 1 June heating degree days  
Since 1 July heating degree days  
Cooling Degree Days 0    
Month to date cooling degree days  
Year to date cooling degree days  
Since 1 June cooling degree days  
Growing Degree Days 13 (Base 50)    
Moisture  
Dew Point 59 °F    
Average Humidity 87    
Maximum Humidity 100    
Minimum Humidity 73    
Precipitation  
Precipitation 0.00 in - 0.00 in (2014)
Month to date precipitation  
Year to date precipitation  
Since 1 July precipitation  
Sea Level Pressure  
Sea Level Pressure 29.85 in    
Wind  
Wind Speed 7 mph (SSW)    
Max Wind Speed 14 mph    
Max Gust Speed 22 mph    
Visibility 10 miles    
Events Rain    
T = Trace of Precipitation, MM = Missing Value Source: NWS Daily Summary

Daily Weather History Graph

Daily Weather History Graph

Search for Another Location

Airport:

Trip Planner

Search our weather history database for the weather conditions in past years. The results will help you decide how hot, cold, wet, or windy it might be!

Date:

Astronomy

Jun. 23, 2013 Rise Set
Actual Time 5:48 AM PDT 8:37 PM PDT
Civil Twilight 5:16 AM PDT 9:08 PM PDT
Nautical Twilight 4:36 AM PDT 9:48 PM PDT
Astronomical Twilight 3:51 AM PDT 10:33 PM PDT
Moon 8:55 PM PDT 6:10 AM PDT
Length of Visible Light 15h 52m
Length of Day
14h 49m
Full, 100% of the Moon is Illuminated
Jun 23
Full
Jun 29
Last Quarter
Jul 8
New
Jul 15
First Quarter
Jul 22
Full

Hourly Weather History & Observations

Time (PDT) Temp. Dew Point Humidity Pressure Visibility Wind Dir Wind Speed Gust Speed Precip Events Conditions
12:15 AM 60.8 °F 55.4 °F 82% 29.85 in 10.0 mi SE 5.8 mph - N/A   Clear
12:35 AM 60.8 °F 55.4 °F 82% 29.85 in 10.0 mi East 5.8 mph - N/A   Clear
12:55 AM 59.0 °F 55.4 °F 88% 29.85 in 10.0 mi East 6.9 mph - N/A   Clear
1:15 AM 59.0 °F 55.4 °F 88% 29.85 in 10.0 mi East 5.8 mph - N/A   Clear
1:35 AM 59.0 °F 55.4 °F 88% 29.85 in 10.0 mi East 8.1 mph - N/A   Clear
1:55 AM 57.2 °F 55.4 °F 94% 29.85 in 10.0 mi SE 5.8 mph - N/A   Clear
2:15 AM 57.2 °F 55.4 °F 94% 29.85 in 10.0 mi SE 5.8 mph - N/A   Clear
2:35 AM 57.2 °F 55.4 °F 94% 29.84 in 10.0 mi ESE 8.1 mph - N/A   Clear
2:55 AM 57.2 °F 57.2 °F 100% 29.84 in 10.0 mi SE 3.5 mph - N/A   Clear
3:15 AM 59.0 °F 57.2 °F 94% 29.84 in 10.0 mi SSE 6.9 mph - N/A   Clear
3:35 AM 59.0 °F 57.2 °F 94% 29.83 in 10.0 mi ESE 6.9 mph - N/A   Clear
3:55 AM 59.0 °F 57.2 °F 94% 29.83 in 10.0 mi SSE 4.6 mph - N/A   Clear
4:15 AM 59.0 °F 57.2 °F 94% 29.84 in 10.0 mi ENE 5.8 mph - N/A   Clear
4:35 AM 59.0 °F 57.2 °F 94% 29.84 in 10.0 mi SE 5.8 mph - N/A   Clear
4:55 AM 59.0 °F 57.2 °F 94% 29.84 in 10.0 mi East 5.8 mph - N/A   Clear
5:15 AM 59.0 °F 59.0 °F 100% 29.84 in 10.0 mi East 4.6 mph - N/A   Clear
5:35 AM 59.0 °F 59.0 °F 100% 29.84 in 10.0 mi East 8.1 mph - N/A   Clear
5:55 AM 59.0 °F 59.0 °F 100% 29.84 in 10.0 mi SE 8.1 mph - N/A   Partly Cloudy
6:15 AM 60.8 °F 59.0 °F 94% 29.83 in 10.0 mi East 6.9 mph - N/A   Clear
6:35 AM 62.6 °F 57.2 °F 82% 29.84 in 10.0 mi WSW 10.4 mph 16.1 mph N/A   Clear
6:55 AM 60.8 °F 59.0 °F 94% 29.85 in 10.0 mi WSW 6.9 mph - N/A   Clear
7:15 AM 60.8 °F 59.0 °F 94% 29.84 in 10.0 mi SE 5.8 mph - N/A   Clear
7:35 AM 62.6 °F 57.2 °F 82% 29.84 in 10.0 mi ENE 4.6 mph - N/A   Clear
7:55 AM 64.4 °F 57.2 °F 77% 29.84 in 10.0 mi East 4.6 mph - N/A   Clear
8:15 AM 64.4 °F 57.2 °F 77% 29.85 in 10.0 mi East 5.8 mph - N/A   Clear
8:35 AM 64.4 °F 57.2 °F 77% 29.85 in 10.0 mi WNW 9.2 mph - N/A   Clear
8:55 AM 64.4 °F 57.2 °F 77% 29.86 in 10.0 mi West 8.1 mph 16.1 mph N/A   Clear
9:15 AM 64.4 °F 57.2 °F 77% 29.85 in 10.0 mi NW 5.8 mph 17.3 mph N/A   Clear
9:35 AM 64.4 °F 57.2 °F 77% 29.87 in 10.0 mi West 11.5 mph 17.3 mph N/A   Clear
9:55 AM 64.4 °F 59.0 °F 83% 29.87 in 10.0 mi WSW 12.7 mph - N/A   Clear
10:15 AM 64.4 °F 59.0 °F 83% 29.86 in 10.0 mi WNW 9.2 mph - N/A   Partly Cloudy
10:35 AM 66.2 °F 59.0 °F 78% 29.86 in 10.0 mi North 9.2 mph - N/A   Clear
10:55 AM 66.2 °F 59.0 °F 78% 29.88 in 10.0 mi WSW 13.8 mph - N/A   Partly Cloudy
11:15 AM 68.0 °F 59.0 °F 73% 29.87 in 10.0 mi NNW 4.6 mph - N/A   Scattered Clouds
11:35 AM 66.2 °F 59.0 °F 78% 29.87 in 10.0 mi WSW 9.2 mph 20.7 mph N/A   Mostly Cloudy
11:55 AM 66.2 °F 60.8 °F 83% 29.87 in 10.0 mi SW 13.8 mph 21.9 mph N/A   Mostly Cloudy
12:15 PM 66.2 °F 60.8 °F 83% 29.88 in 10.0 mi WSW 9.2 mph 19.6 mph N/A   Overcast
12:35 PM 64.4 °F 62.6 °F 94% 29.87 in 10.0 mi WSW 8.1 mph 18.4 mph N/A   Overcast
12:55 PM 64.4 °F 62.6 °F 94% 29.88 in 10.0 mi WSW 8.1 mph 17.3 mph N/A   Overcast
1:15 PM 64.4 °F 62.6 °F 94% 29.87 in 10.0 mi SW 9.2 mph - N/A Rain Light Rain
1:35 PM 66.2 °F 60.8 °F 83% 29.87 in 10.0 mi WSW 10.4 mph - N/A   Overcast
1:55 PM 68.0 °F 62.6 °F 83% 29.86 in 10.0 mi WSW 9.2 mph 16.1 mph N/A   Overcast
2:15 PM 68.0 °F 62.6 °F 83% 29.86 in 10.0 mi SW 10.4 mph - N/A   Overcast
2:35 PM 66.2 °F 62.6 °F 88% 29.86 in 10.0 mi SW 11.5 mph - N/A   Overcast
2:55 PM 68.0 °F 62.6 °F 83% 29.86 in 10.0 mi SW 12.7 mph - N/A   Mostly Cloudy
3:15 PM 68.0 °F 62.6 °F 83% 29.85 in 10.0 mi SW 11.5 mph - N/A   Partly Cloudy
3:35 PM 68.0 °F 62.6 °F 83% 29.85 in 10.0 mi WSW 9.2 mph - N/A   Mostly Cloudy
3:55 PM 68.0 °F 60.8 °F 78% 29.85 in 10.0 mi WSW 9.2 mph - N/A   Overcast
4:15 PM 68.0 °F 60.8 °F 78% 29.85 in 10.0 mi SW 9.2 mph - N/A   Mostly Cloudy
4:35 PM 68.0 °F 60.8 °F 78% 29.85 in 10.0 mi WSW 10.4 mph - N/A   Mostly Cloudy
4:55 PM 69.8 °F 60.8 °F 73% 29.84 in 10.0 mi SW 10.4 mph - N/A   Overcast
5:15 PM 68.0 °F 60.8 °F 78% 29.84 in 10.0 mi SW 11.5 mph - N/A   Overcast
5:35 PM 68.0 °F 60.8 °F 78% 29.84 in 10.0 mi SW 9.2 mph - N/A   Overcast
5:55 PM 69.8 °F 60.8 °F 73% 29.83 in 10.0 mi SW 10.4 mph - N/A   Overcast
6:15 PM 68.0 °F 60.8 °F 78% 29.83 in 10.0 mi WSW 11.5 mph - N/A   Scattered Clouds
6:35 PM 68.0 °F 60.8 °F 78% 29.83 in 10.0 mi WSW 9.2 mph - N/A   Mostly Cloudy
6:55 PM 66.2 °F 60.8 °F 83% 29.83 in 10.0 mi SW 5.8 mph - N/A   Overcast
7:15 PM 66.2 °F 60.8 °F 83% 29.83 in 10.0 mi SW 8.1 mph - N/A   Overcast
7:35 PM 64.4 °F 60.8 °F 88% 29.83 in 10.0 mi SW 4.6 mph - N/A   Overcast
7:55 PM 64.4 °F 60.8 °F 88% 29.83 in 10.0 mi SSW 4.6 mph - N/A   Overcast
8:15 PM 64.4 °F 60.8 °F 88% 29.83 in 10.0 mi WSW 9.2 mph - N/A   Overcast
8:35 PM 62.6 °F 60.8 °F 94% 29.83 in 10.0 mi SW 8.1 mph - N/A   Overcast
8:55 PM 62.6 °F 60.8 °F 94% 29.84 in 10.0 mi West 6.9 mph - N/A   Overcast
9:15 PM 62.6 °F 59.0 °F 88% 29.83 in 10.0 mi SW 9.2 mph - N/A   Overcast
9:35 PM 62.6 °F 59.0 °F 88% 29.83 in 10.0 mi WSW 4.6 mph - N/A   Overcast
9:55 PM 60.8 °F 59.0 °F 94% 29.83 in 10.0 mi WNW 4.6 mph - N/A   Partly Cloudy
10:15 PM 59.0 °F 59.0 °F 100% 29.84 in 10.0 mi SSW 5.8 mph - N/A   Clear
10:35 PM 59.0 °F 59.0 °F 100% 29.84 in 10.0 mi Calm Calm - N/A   Clear
10:55 PM 57.2 °F 57.2 °F 100% 29.84 in 10.0 mi Calm Calm - N/A   Unknown
11:15 PM 57.2 °F 57.2 °F 100% 29.84 in 10.0 mi ESE 6.9 mph - N/A   Unknown
11:35 PM 57.2 °F 57.2 °F 100% 29.83 in 10.0 mi ESE 4.6 mph - N/A   Unknown
11:55 PM 57.2 °F 57.2 °F 100% 29.83 in 10.0 mi East 3.5 mph - N/A   Unknown